• In Latvia
  • List of Countries
  • For 7 days
  • Water Temperature
  • Satellite Maps
  • Weather Map
  • Weather Widgets
  • user-avatar
    Login

    Hourly Weather Dahnovici

    Today, 17 October, Wednesday

    Time Temperature Precipitation Wind Pressure Humidity
    00:00 +16°C° 0 mm 1 mps 751 mmHg 56%
    01:00 +15°C° 0 mm 1 mps 751 mmHg 58%
    02:00 +15°C° 0 mm 1 mps 751 mmHg 60%
    03:00 +14°C° 0 mm 1 mps 751 mmHg 62%
    04:00 +14°C° 0 mm 1 mps 751 mmHg 64%
    05:00 +14°C° 0 mm 1 mps 751 mmHg 66%
    06:00 +14°C° 0 mm 1 mps 751 mmHg 65%
    07:00 +15°C° 0 mm 2 mps 751 mmHg 64%
    08:00 +16°C° 0 mm 2 mps 751 mmHg 62%
    09:00 +17°C° 0 mm 2 mps 751 mmHg 56%
    10:00 +19°C° 0 mm 3 mps 751 mmHg 50%
    11:00 +21°C° 0 mm 3 mps 751 mmHg 44%
    12:00 +22°C° 0 mm 3 mps 751 mmHg 41%
    13:00 +24°C° 0 mm 3 mps 751 mmHg 38%
    14:00 +25°C° 0 mm 4 mps 750 mmHg 35%
    15:00 +24°C° 0 mm 3 mps 750 mmHg 38%
    16:00 +21°C° 0 mm 3 mps 750 mmHg 42%
    17:00 +20°C° 0 mm 2 mps 750 mmHg 46%
    18:00 +19°C° 0 mm 2 mps 750 mmHg 49%
    19:00 +18°C° 0 mm 2 mps 750 mmHg 53%
    20:00 +18°C° 0 mm 1 mps 750 mmHg 57%
    21:00 +18°C° 0 mm 1 mps 750 mmHg 59%
    22:00 +16°C° 0 mm 1 mps 750 mmHg 61%
    23:00 +16°C° 0 mm 1 mps 749 mmHg 63%

    Tomorrow, 18 October, Thursday

    Time Temperature Precipitation Wind Pressure Humidity
    00:00 +15°C° 0 mm 1 mps 749 mmHg 65%
    01:00 +15°C° 0 mm 1 mps 749 mmHg 67%
    02:00 +14°C° 0 mm 1 mps 749 mmHg 69%
    03:00 +14°C° 0 mm 1 mps 749 mmHg 71%
    04:00 +13°C° 0 mm 1 mps 749 mmHg 72%
    05:00 +13°C° 0 mm 1 mps 749 mmHg 73%
    06:00 +14°C° 0 mm 2 mps 749 mmHg 70%
    07:00 +14°C° 0 mm 2 mps 749 mmHg 67%
    08:00 +15°C° 0 mm 2 mps 749 mmHg 64%
    09:00 +17°C° 0 mm 2 mps 749 mmHg 57%
    10:00 +18°C° 0 mm 3 mps 749 mmHg 50%
    11:00 +20°C° 0 mm 3 mps 749 mmHg 44%
    12:00 +21°C° 0 mm 3 mps 748 mmHg 40%
    13:00 +22°C° 0 mm 3 mps 748 mmHg 37%
    14:00 +24°C° 0 mm 3 mps 747 mmHg 34%
    15:00 +22°C° 0 mm 3 mps 747 mmHg 37%
    16:00 +21°C° 0 mm 2 mps 747 mmHg 39%
    17:00 +20°C° 0 mm 2 mps 747 mmHg 41%
    18:00 +19°C° 0 mm 2 mps 747 mmHg 44%
    19:00 +19°C° 0 mm 1 mps 747 mmHg 47%
    20:00 +18°C° 0 mm 1 mps 747 mmHg 49%
    21:00 +16°C° 0 mm 1 mps 747 mmHg 51%
    22:00 +16°C° 0 mm 1 mps 747 mmHg 53%
    23:00 +15°C° 0 mm 0 mps 747 mmHg 54%

    Day after tomorrow, 19 October, Friday

    Time Temperature Precipitation Wind Pressure Humidity
    00:00 +14°C° 0 mm 0 mps 746 mmHg 55%
    01:00 +14°C° 0 mm 0 mps 746 mmHg 56%
    02:00 +14°C° 0 mm 0 mps 746 mmHg 57%
    03:00 +14°C° 0 mm 0 mps 746 mmHg 57%
    04:00 +14°C° 0 mm 0 mps 746 mmHg 57%
    05:00 +14°C° 0 mm 1 mps 746 mmHg 57%
    06:00 +15°C° 0 mm 1 mps 746 mmHg 56%
    07:00 +15°C° 0 mm 1 mps 746 mmHg 54%
    08:00 +16°C° 0 mm 1 mps 746 mmHg 53%
    09:00 +18°C° 0 mm 1 mps 746 mmHg 48%
    10:00 +20°C° 0 mm 1 mps 746 mmHg 44%
    11:00 +20°C° 0 mm 2 mps 746 mmHg 39%
    12:00 +21°C° 0 mm 2 mps 746 mmHg 37%
    13:00 +21°C° 0 mm 2 mps 746 mmHg 35%
    14:00 +23°C° 0 mm 2 mps 745 mmHg 33%
    15:00 +21°C° 0 mm 2 mps 745 mmHg 36%
    16:00 +20°C° 0 mm 2 mps 745 mmHg 38%
    17:00 +19°C° 0 mm 2 mps 745 mmHg 41%
    18:00 +18°C° 0 mm 2 mps 745 mmHg 42%
    19:00 +18°C° 0 mm 2 mps 746 mmHg 44%
    20:00 +17°C° 0 mm 2 mps 746 mmHg 46%
    21:00 +16°C° 0 mm 2 mps 746 mmHg 50%
    22:00 +16°C° 0 mm 3 mps 746 mmHg 54%
    23:00 +14°C° 0 mm 3 mps 746 mmHg 57%

    20 October, Saturday

    Time Temperature Precipitation Wind Pressure Humidity
    00:00 +14°C° 0 mm 3 mps 746 mmHg 61%
    01:00 +13°C° 0 mm 3 mps 746 mmHg 65%
    02:00 +13°C° 0 mm 3 mps 747 mmHg 68%
    03:00 +13°C° 0.1 mm 3 mps 747 mmHg 70%
    04:00 +13°C° 0.1 mm 3 mps 747 mmHg 71%
    05:00 +13°C° 0.1 mm 3 mps 747 mmHg 73%
    06:00 +13°C° 0.1 mm 3 mps 747 mmHg 73%
    07:00 +13°C° 0.1 mm 4 mps 747 mmHg 73%
    08:00 +13°C° 0.1 mm 4 mps 748 mmHg 74%
    09:00 +14°C° 0.1 mm 4 mps 748 mmHg 70%
    10:00 +14°C° 0.1 mm 4 mps 748 mmHg 67%
    11:00 +15°C° 0.1 mm 4 mps 748 mmHg 64%
    12:00 +16°C° 0.1 mm 5 mps 748 mmHg 62%
    13:00 +16°C° 0.1 mm 5 mps 748 mmHg 59%
    14:00 +17°C° 0.1 mm 5 mps 748 mmHg 56%
    15:00 +17°C° 0 mm 5 mps 748 mmHg 58%
    16:00 +17°C° 0 mm 4 mps 749 mmHg 59%
    17:00 +17°C° 0 mm 4 mps 749 mmHg 61%
    18:00 +15°C° 0 mm 5 mps 749 mmHg 64%
    19:00 +14°C° 0 mm 5 mps 749 mmHg 68%
    20:00 +14°C° 0 mm 6 mps 750 mmHg 71%
    21:00 +13°C° 0 mm 6 mps 750 mmHg 73%
    22:00 +12°C° 0 mm 5 mps 750 mmHg 74%
    23:00 +12°C° 0 mm 5 mps 750 mmHg 76%

    21 October, Sunday

    Time Temperature Precipitation Wind Pressure Humidity
    00:00 +12°C° 0 mm 5 mps 750 mmHg 75%
    01:00 +10°C° 0 mm 5 mps 750 mmHg 75%
    02:00 +10°C° 0 mm 5 mps 750 mmHg 74%
    03:00 +10°C° 0 mm 5 mps 750 mmHg 73%
    04:00 +10°C° 0 mm 5 mps 750 mmHg 72%
    05:00 +9°C° 0 mm 5 mps 750 mmHg 71%
    06:00 +9°C° 0 mm 5 mps 750 mmHg 68%
    07:00 +9°C° 0 mm 6 mps 750 mmHg 66%
    08:00 +9°C° 0 mm 6 mps 750 mmHg 63%
    09:00 +10°C° 0 mm 6 mps 750 mmHg 58%
    10:00 +11°C° 0 mm 6 mps 750 mmHg 53%
    11:00 +11°C° 0 mm 6 mps 750 mmHg 48%
    12:00 +13°C° 0 mm 6 mps 750 mmHg 45%
    13:00 +13°C° 0 mm 6 mps 750 mmHg 43%
    14:00 +13°C° 0 mm 6 mps 749 mmHg 40%
    15:00 +13°C° 0 mm 6 mps 749 mmHg 41%
    16:00 +12°C° 0 mm 5 mps 749 mmHg 42%
    17:00 +10°C° 0 mm 5 mps 749 mmHg 42%
    18:00 +11°C° 0 mm 4 mps 749 mmHg 45%
    19:00 +10°C° 0 mm 4 mps 749 mmHg 48%
    20:00 +8°C° 0 mm 4 mps 749 mmHg 51%
    21:00 +9°C° 0 mm 3 mps 749 mmHg 56%
    22:00 +8°C° 0 mm 3 mps 749 mmHg 60%
    23:00 +8°C° 0 mm 3 mps 749 mmHg 64%

    22 October, Monday

    Time Temperature Precipitation Wind Pressure Humidity
    00:00 +7°C° 0 mm 3 mps 749 mmHg 67%
    01:00 +7°C° 0 mm 3 mps 748 mmHg 70%
    02:00 +5°C° 0 mm 3 mps 748 mmHg 74%
    03:00 +5°C° 0 mm 3 mps 748 mmHg 76%
    04:00 +4°C° 0 mm 3 mps 748 mmHg 78%
    05:00 +4°C° 0 mm 3 mps 748 mmHg 80%
    06:00 +4°C° 0 mm 3 mps 748 mmHg 78%
    07:00 +5°C° 0 mm 4 mps 749 mmHg 75%
    08:00 +5°C° 0 mm 4 mps 749 mmHg 73%
    09:00 +7°C° 0 mm 5 mps 749 mmHg 65%
    10:00 +8°C° 0 mm 5 mps 749 mmHg 58%
    11:00 +10°C° 0 mm 5 mps 749 mmHg 50%
    12:00 +10°C° 0 mm 5 mps 749 mmHg 47%
    13:00 +12°C° 0 mm 5 mps 749 mmHg 44%
    14:00 +13°C° 0 mm 5 mps 748 mmHg 42%
    15:00 +12°C° 0 mm 4 mps 748 mmHg 44%
    16:00 +11°C° 0 mm 4 mps 748 mmHg 46%
    17:00 +10°C° 0 mm 3 mps 748 mmHg 49%
    18:00 +10°C° 0 mm 3 mps 748 mmHg 52%
    19:00 +9°C° 0 mm 3 mps 748 mmHg 55%
    20:00 +8°C° 0 mm 3 mps 748 mmHg 58%
    21:00 +8°C° 0 mm 3 mps 749 mmHg 60%
    22:00 +7°C° 0 mm 3 mps 749 mmHg 62%
    23:00 +7°C° 0 mm 3 mps 749 mmHg 64%
    Show more